Location: Canazei
(46.4667°N, 11.7667°E)
Time: 17:52:41
(UTC+00:00)

IRS-1C - Pass Details

Date: 21 April 2021
Orbit: 816 x 817 km, 98.9° (Epoch: 11 May)

Event Time Altitude Azimuth Distance (km) Brightness Sun altitude
Rises 02:14:17 0° 14° (NNE) 3,355 8.3 -18.8°
Reaches altitude 10° 02:16:38 10° 16° (NNE) 2,418 7.4 -18.5°
Maximum altitude 02:22:01 85° 105° (ESE) 826 4.1 -17.8°
Enters shadow 02:25:37 21° 193° (SSW) 1,736 5.4 -17.3°
